Regional Weather Roundup
Issued by NWS Glasgow, MT

Home | Current Version | Previous Version | Text Only | Print | Product List | Glossary On
Versions: 1 2 3 4 5 6 7 8 9 10 11 12 13 14 15 16 17 18 19 20 21 22 23 24 25 26 27 28
000
ASUS45 KGGW 210215
RWRGGW
HOURLY REGIONAL WEATHER ROUNDUP FOR NORTHEAST MONTANA
NATIONAL WEATHER SERVICE GLASGOW MONTANA
700 PM MST MON FEB 20 2017

NOTE: "FAIR" INDICATES FEW OR NO CLOUDS BELOW 12,000 FEET WITH NO
SIGNIFICANT WEATHER AND/OR OBSTRUCTIONS TO VISISBILITY.

NORTHEAST MONTANA


CITY           SKY/WX    TMP DP  RH WIND       PRES   REMARKS
GLASGOW        MOCLDY    40  30  67 SE12      29.60R
PLENTYWOOD       N/A     42  25  50 E3G12       N/A
WOLF POINT     MOCLDY    38  30  73 NE8       29.63S
JORDAN           N/A     48  34  58 NW7       29.62R
WINNETT          N/A     49  32  52 SW3G13      N/A
SIDNEY         MOCLDY    42  29  59 N5        29.66F
GLENDIVE       MOCLDY    45  28  51 S6        29.66F
MALTA            N/A     44  35  70 W3          N/A

FORT PECK REPORTS


CITY           SKY/WX    TMP DP  RH WIND       PRES   REMARKS
FORT PECK        N/A     44  35  70 S13G26      N/A
THE PINES        N/A     45  33  63 CALM        N/A

SOUTHEAST MONTANA


CITY           SKY/WX    TMP DP  RH WIND       PRES   REMARKS
BILLINGS       MOCLDY    53  30  41 SW16G26   29.64R
MILES CITY     MOCLDY    49  28  44 SE7       29.65R
BAKER          CLOUDY    37  29  72 SE5       29.69S
LIVINGSTON     PTCLDY    49  29  46 SW32G43   29.67R

CENTRAL MONTANA


CITY           SKY/WX    TMP DP  RH WIND       PRES   REMARKS
HAVRE          PTCLDY    39  35  86 SW9       29.56S
LEWISTOWN      CLOUDY    42  34  73 VRB6      29.64S
GREAT FALLS    CLEAR     34  29  82 SW9       29.60R
CUT BANK       PTCLDY    37  30  75 SW16      29.54R
HELENA         CLEAR     47  29  49 SW12G21   29.64R
BUTTE          CLOUDY    38  30  73 E5        29.73R
BOZEMAN        MOCLDY    45  30  55 SW10      29.72R

WESTERN MONTANA


CITY           SKY/WX    TMP DP  RH WIND       PRES   REMARKS
MISSOULA       LGT RAIN  38  37  97 N3        29.71R FOG
KALISPELL      NOT AVBL

NORTH DAKOTA


CITY           SKY/WX    TMP DP  RH WIND       PRES   REMARKS
WILLISTON      CLEAR     34  27  75 CALM      29.67F
DICKINSON      CLEAR     35  25  66 S6        29.69F
MINOT          CLEAR     38  33  82 SW9       29.70R
BISMARCK       CLEAR     38  32  79 CALM      29.77R

SOUTHERN SASKATCHEWAN


CITY           SKY/WX    TMP DP  RH WIND       PRES   REMARKS
REGINA         PTCLDY    32  30  93 SE5       29.65R
ESTEVAN        PTCLDY    32  30  93 SW6       29.67R
SWIFT CURRENT  MOCLDY    36  30  80 SE6       29.58S





USA.gov is the U.S. government's official web portal to all federal, state and local government web resources and services.